| time (UTC) | temp F | wind direction | speed knots | gust knots | rain 1hr in | rain 24hr in | rain mn in | humidity % | barometer mb |
| 20260507020806 | 53 | 188 | 0.0 | 0.9 | 0.00 | 0.00 | 0.00 | 68 | 1016.3 |
| 20260507020721 | 53 | 200 | 0.0 | 0.9 | 0.00 | 0.00 | 0.00 | 68 | 1016.3 |
| 20260507015735 | 54 | 131 | 0.0 | 0.9 | 0.00 | 0.00 | 0.00 | 67 | 1016.4 |
| 20260507015718 | 54 | 122 | 0.0 | 0.9 | 0.00 | 0.00 | 0.00 | 67 | 1016.3 |
| 20260507014729 | 54 | 121 | 0.0 | 0.9 | 0.00 | 0.00 | 0.00 | 66 | 1016.1 |
| 20260507014202 | 55 | 151 | 0.0 | 1.7 | 0.00 | 0.00 | 0.00 | 66 | 1016.2 |
| 20260507013656 | 55 | 97 | 0.0 | 1.7 | 0.00 | 0.00 | 0.00 | 65 | 1016.1 |
| 20260507013127 | 55 | 72 | 0.0 | 1.7 | 0.00 | 0.00 | 0.00 | 65 | 1015.9 |
| 20260507012623 | 56 | 86 | 0.0 | 1.7 | 0.00 | 0.00 | 0.00 | 64 | 1016.0 |
| 20260507012603 | 56 | 136 | 0.0 | 0.9 | 0.00 | 0.00 | 0.00 | 63 | 1015.9 |
| 20260507011558 | 56 | 219 | 0.0 | 1.7 | 0.00 | 0.00 | 0.00 | 63 | 1015.7 |
| 20260507011048 | 57 | 77 | 0.0 | 1.7 | 0.00 | 0.00 | 0.00 | 62 | 1015.8 |
| 20260507010547 | 58 | 98 | 0.0 | 1.7 | 0.00 | 0.00 | 0.00 | 61 | 1015.7 |
| 20260507010017 | 58 | 68 | 0.9 | 3.5 | 0.00 | 0.00 | 0.00 | 60 | 1015.7 |
| 20260507005516 | 59 | 101 | 0.9 | 3.5 | 0.00 | 0.00 | 0.00 | 59 | 1015.6 |
| 20260507005431 | 60 | 169 | 0.9 | 2.6 | 0.00 | 0.00 | 0.00 | 58 | 1015.5 |
| 20260507004444 | 60 | 49 | 0.9 | 4.3 | 0.00 | 0.00 | 0.00 | 57 | 1015.5 |
| 20260507003918 | 60 | 59 | 0.9 | 4.3 | 0.00 | 0.00 | 0.00 | 56 | 1015.6 |
| 20260507003415 | 61 | 21 | 0.9 | 5.2 | 0.00 | 0.00 | 0.00 | 56 | 1015.7 |
| 20260507002847 | 60 | 41 | 0.9 | 5.2 | 0.00 | 0.00 | 0.00 | 58 | 1015.7 |
| 20260507002340 | 60 | 63 | 0.9 | 5.2 | 0.00 | 0.00 | 0.00 | 57 | 1015.6 |
| 20260507001825 | 60 | 77 | 1.7 | 5.2 | 0.00 | 0.00 | 0.00 | 57 | 1015.5 |
| 20260507001329 | 60 | 27 | 1.7 | 4.3 | 0.00 | 0.00 | 0.00 | 55 | 1015.4 |
| 20260507000801 | 60 | 84 | 1.7 | 4.3 | 0.00 | 0.00 | 0.00 | 56 | 1015.4 |
| 20260507000259 | 60 | 38 | 2.6 | 6.1 | 0.00 | 0.00 | 0.00 | 55 | 1015.4 |
| 20260507000241 | 61 | 86 | 2.6 | 6.1 | 0.00 | 0.00 | 0.00 | 55 | 1015.5 |
| 20260506235254 | 61 | 106 | 2.6 | 6.1 | 0.00 | 0.00 | 0.00 | 56 | 1015.4 |
| 20260506234753 | 60 | 73 | 2.6 | 7.8 | 0.00 | 0.00 | 0.00 | 56 | 1015.4 |
| 20260506234740 | 60 | 47 | 2.6 | 7.8 | 0.00 | 0.00 | 0.00 | 56 | 1015.4 |
| 20260506233752 | 60 | 23 | 2.6 | 7.0 | 0.00 | 0.00 | 0.00 | 56 | 1015.4 |
| 20260506233254 | 60 | 6 | 1.7 | 4.3 | 0.00 | 0.00 | 0.00 | 57 | 1015.3 |
| 20260506232752 | 60 | 28 | 2.6 | 6.1 | 0.00 | 0.00 | 0.00 | 59 | 1015.3 |
| 20260506232730 | 60 | 61 | 2.6 | 6.1 | 0.00 | 0.00 | 0.00 | 57 | 1015.2 |
| 20260506231721 | 60 | 29 | 2.6 | 4.3 | 0.00 | 0.00 | 0.00 | 59 | 1015.3 |
| 20260506231219 | 60 | 18 | 2.6 | 6.1 | 0.00 | 0.00 | 0.00 | 58 | 1015.3 |
| 20260506230712 | 60 | 96 | 2.6 | 6.1 | 0.00 | 0.00 | 0.00 | 58 | 1015.2 |
| 20260506230208 | 60 | 41 | 2.6 | 7.8 | 0.00 | 0.00 | 0.00 | 59 | 1015.0 |
| 20260506225642 | 60 | 88 | 3.5 | 7.8 | 0.00 | 0.00 | 0.00 | 58 | 1014.9 |
| 20260506225138 | 60 | 141 | 2.6 | 7.8 | 0.00 | 0.00 | 0.00 | 59 | 1014.8 |
| 20260506224612 | 61 | 219 | 1.7 | 7.8 | 0.00 | 0.00 | 0.00 | 60 | 1014.8 |
| 20260506224057 | 60 | 89 | 1.7 | 5.2 | 0.00 | 0.00 | 0.00 | 60 | 1014.6 |
| 20260506224030 | 60 | 79 | 2.6 | 9.6 | 0.00 | 0.00 | 0.00 | 59 | 1014.3 |
| 20260506223028 | 60 | 273 | 3.5 | 9.6 | 0.00 | 0.00 | 0.00 | 58 | 1014.3 |
| 20260506222504 | 60 | 224 | 3.5 | 9.6 | 0.00 | 0.00 | 0.00 | 60 | 1014.2 |
| 20260506222005 | 60 | 33 | 3.5 | 9.6 | 0.00 | 0.00 | 0.00 | 58 | 1014.2 |
| 20260506221504 | 60 | 276 | 3.5 | 9.6 | 0.00 | 0.00 | 0.00 | 62 | 1014.2 |
| 20260506221002 | 60 | 71 | 3.5 | 9.6 | 0.00 | 0.00 | 0.00 | 60 | 1014.0 |
| 20260506220503 | 61 | 24 | 3.5 | 7.8 | 0.00 | 0.00 | 0.00 | 60 | 1014.2 |
| 20260506220000 | 61 | 231 | 2.6 | 7.8 | 0.00 | 0.00 | 0.00 | 61 | 1014.3 |
| 20260506215457 | 61 | 124 | 2.6 | 7.8 | 0.00 | 0.00 | 0.00 | 61 | 1014.5 |
| 20260506214932 | 60 | 117 | 2.6 | 5.2 | 0.00 | 0.00 | 0.00 | 61 | 1014.5 |
| 20260506214433 | 60 | 165 | 2.6 | 5.2 | 0.00 | 0.00 | 0.00 | 63 | 1014.5 |
| 20260506214343 | 60 | 141 | 3.5 | 6.1 | 0.00 | 0.00 | 0.00 | 62 | 1014.5 |
| 20260506213353 | 60 | 28 | 3.5 | 7.8 | 0.00 | 0.00 | 0.00 | 62 | 1014.6 |
| 20260506212851 | 60 | 133 | 2.6 | 8.7 | 0.00 | 0.00 | 0.00 | 61 | 1014.6 |
| 20260506212348 | 60 | 115 | 1.7 | 8.7 | 0.00 | 0.00 | 0.00 | 65 | 1014.7 |
| 20260506211819 | 60 | 113 | 2.6 | 7.8 | 0.00 | 0.00 | 0.00 | 64 | 1014.6 |
| 20260506211253 | 59 | 34 | 3.5 | 7.8 | 0.00 | 0.00 | 0.00 | 62 | 1014.6 |
| 20260506210725 | 60 | 45 | 3.5 | 7.0 | 0.00 | 0.00 | 0.00 | 63 | 1014.7 |
| 20260506210222 | 60 | 283 | 2.6 | 7.0 | 0.00 | 0.00 | 0.00 | 63 | 1014.8 |
| 20260506205655 | 60 | 32 | 2.6 | 7.8 | 0.00 | 0.00 | 0.00 | 64 | 1015.0 |
| 20260506205152 | 59 | 33 | 1.7 | 7.8 | 0.00 | 0.00 | 0.00 | 65 | 1015.0 |
| 20260506204640 | 59 | 89 | 3.5 | 7.8 | 0.00 | 0.00 | 0.00 | 63 | 1015.1 |
| 20260506204143 | 60 | 42 | 3.5 | 7.8 | 0.00 | 0.00 | 0.00 | 63 | 1015.0 |
| 20260506203620 | 59 | 85 | 3.5 | 7.0 | 0.00 | 0.00 | 0.00 | 65 | 1015.0 |
| 20260506203110 | 59 | 122 | 3.5 | 7.8 | 0.00 | 0.00 | 0.00 | 62 | 1015.2 |
| 20260506202557 | 59 | 18 | 3.5 | 7.8 | 0.00 | 0.00 | 0.00 | 62 | 1015.4 |
| 20260506202101 | 60 | 6 | 3.5 | 7.8 | 0.00 | 0.00 | 0.00 | 61 | 1015.4 |
| 20260506201533 | 60 | 25 | 2.6 | 7.8 | 0.00 | 0.00 | 0.00 | 60 | 1015.4 |
| 20260506201031 | 60 | 282 | 2.6 | 7.8 | 0.00 | 0.00 | 0.00 | 61 | 1015.4 |
| 20260506200945 | 59 | 62 | 2.6 | 7.8 | 0.00 | 0.00 | 0.00 | 62 | 1015.6 |
| 20260506200000 | 60 | 89 | 2.6 | 6.1 | 0.00 | 0.00 | 0.00 | 62 | 1015.7 |
| 20260506195918 | 60 | 100 | 2.6 | 7.8 | 0.00 | 0.00 | 0.00 | 64 | 1015.7 |
| 20260506194929 | 59 | 63 | 2.6 | 7.8 | 0.00 | 0.01 | 0.00 | 62 | 1015.8 |
| 20260506194401 | 59 | 340 | 2.6 | 6.1 | 0.00 | 0.01 | 0.00 | 62 | 1015.8 |
| 20260506193856 | 60 | 63 | 2.6 | 6.1 | 0.00 | 0.01 | 0.00 | 63 | 1016.0 |
| 20260506193357 | 60 | 72 | 2.6 | 7.8 | 0.00 | 0.01 | 0.00 | 62 | 1016.0 |
| 20260506192833 | 60 | 46 | 2.6 | 7.8 | 0.00 | 0.01 | 0.00 | 66 | 1016.0 |
| 20260506192332 | 59 | 86 | 1.7 | 6.1 | 0.00 | 0.01 | 0.00 | 66 | 1015.8 |
| 20260506191800 | 59 | 91 | 1.7 | 6.1 | 0.00 | 0.01 | 0.00 | 66 | 1016.0 |
| 20260506191257 | 59 | 23 | 1.7 | 6.1 | 0.00 | 0.01 | 0.00 | 64 | 1016.1 |
| 20260506190741 | 58 | 49 | 2.6 | 6.1 | 0.00 | 0.01 | 0.00 | 65 | 1016.0 |
| 20260506190715 | 58 | 61 | 2.6 | 6.1 | 0.00 | 0.01 | 0.00 | 66 | 1016.2 |
| 20260506185718 | 58 | 92 | 2.6 | 6.1 | 0.00 | 0.01 | 0.00 | 66 | 1016.2 |
| 20260506185153 | 58 | 30 | 2.6 | 7.8 | 0.00 | 0.01 | 0.00 | 66 | 1016.1 |
| 20260506184654 | 58 | 55 | 2.6 | 7.8 | 0.00 | 0.01 | 0.00 | 66 | 1016.2 |
| 20260506184128 | 58 | 81 | 2.6 | 6.1 | 0.00 | 0.01 | 0.00 | 68 | 1016.2 |
| 20260506183625 | 58 | 35 | 2.6 | 5.2 | 0.00 | 0.01 | 0.00 | 66 | 1016.4 |
| 20260506183059 | 58 | 234 | 2.6 | 8.7 | 0.00 | 0.01 | 0.00 | 66 | 1016.6 |
| 20260506182531 | 58 | 85 | 2.6 | 8.7 | 0.00 | 0.01 | 0.00 | 67 | 1016.6 |
| 20260506182029 | 57 | 100 | 1.7 | 5.2 | 0.00 | 0.01 | 0.00 | 67 | 1016.7 |
| 20260506181503 | 57 | 117 | 0.9 | 4.3 | 0.00 | 0.01 | 0.00 | 68 | 1017.0 |
| 20260506180936 | 57 | 113 | 0.9 | 3.5 | 0.00 | 0.01 | 0.00 | 68 | 1017.0 |
| 20260506180433 | 57 | 36 | 1.7 | 4.3 | 0.00 | 0.01 | 0.00 | 68 | 1017.0 |
| 20260506175907 | 56 | 123 | 1.7 | 6.1 | 0.00 | 0.02 | 0.00 | 68 | 1017.4 |
| 20260506175401 | 56 | 236 | 2.6 | 6.1 | 0.00 | 0.02 | 0.00 | 70 | 1017.4 |
| 20260506174859 | 56 | 39 | 3.5 | 7.0 | 0.00 | 0.02 | 0.00 | 68 | 1017.5 |
| 20260506174331 | 56 | 42 | 2.6 | 7.0 | 0.00 | 0.02 | 0.00 | 68 | 1017.6 |
| 20260506173803 | 56 | 186 | 1.7 | 5.2 | 0.00 | 0.02 | 0.00 | 69 | 1017.8 |
| 20260506173300 | 56 | 56 | 0.9 | 2.6 | 0.00 | 0.02 | 0.00 | 70 | 1017.9 |
| 20260506172732 | 55 | 89 | 1.7 | 4.3 | 0.00 | 0.02 | 0.00 | 69 | 1017.8 |
| 20260506172232 | 55 | 138 | 2.6 | 6.1 | 0.00 | 0.02 | 0.00 | 71 | 1017.7 |
| 20260506171729 | 55 | 85 | 2.6 | 6.1 | 0.00 | 0.02 | 0.00 | 69 | 1017.8 |
| 20260506171201 | 54 | 52 | 1.7 | 5.2 | 0.00 | 0.02 | 0.00 | 70 | 1017.8 |
| 20260506170701 | 55 | 96 | 0.9 | 5.2 | 0.00 | 0.02 | 0.00 | 70 | 1017.9 |
| 20260506170135 | 54 | 128 | 1.7 | 4.3 | 0.00 | 0.02 | 0.00 | 73 | 1017.8 |
| 20260506165634 | 53 | 86 | 2.6 | 7.8 | 0.00 | 0.02 | 0.00 | 72 | 1017.8 |
| 20260506165552 | 53 | 108 | 2.6 | 7.8 | 0.00 | 0.02 | 0.00 | 72 | 1017.7 |
| 20260506164543 | 53 | 69 | 2.6 | 7.8 | 0.00 | 0.02 | 0.00 | 72 | 1017.4 |
| 20260506164457 | 53 | 78 | 2.6 | 7.8 | 0.00 | 0.02 | 0.00 | 72 | 1017.3 |
| 20260506163510 | 53 | 20 | 2.6 | 7.0 | 0.00 | 0.02 | 0.00 | 72 | 1017.3 |
| 20260506162942 | 53 | 212 | 3.5 | 7.0 | 0.00 | 0.02 | 0.00 | 73 | 1017.0 |
| 20260506162416 | 53 | 98 | 3.5 | 9.6 | 0.00 | 0.02 | 0.00 | 71 | 1017.0 |
| 20260506161851 | 53 | 41 | 4.3 | 9.6 | 0.00 | 0.02 | 0.00 | 72 | 1016.7 |
| 20260506161812 | 53 | 66 | 5.2 | 11.3 | 0.00 | 0.02 | 0.00 | 73 | 1016.7 |
| 20260506160821 | 53 | 42 | 4.3 | 10.4 | 0.00 | 0.02 | 0.00 | 73 | 1016.6 |
| 20260506160259 | 53 | 65 | 3.5 | 7.8 | 0.00 | 0.02 | 0.00 | 74 | 1016.7 |
| 20260506160244 | 52 | 23 | 4.3 | 9.6 | 0.00 | 0.02 | 0.00 | 76 | 1016.6 |
| 20260506155241 | 52 | 49 | 4.3 | 9.6 | 0.00 | 0.02 | 0.00 | 76 | 1016.5 |
| 20260506155223 | 52 | 70 | 3.5 | 8.7 | 0.00 | 0.02 | 0.00 | 76 | 1016.6 |
| 20260506154212 | 51 | 25 | 3.5 | 8.7 | 0.00 | 0.02 | 0.00 | 78 | 1016.5 |
| 20260506154150 | 51 | 72 | 3.5 | 7.8 | 0.00 | 0.02 | 0.00 | 77 | 1016.3 |
| 20260506153631 | 51 | 167 | 3.5 | 7.0 | 0.00 | 0.02 | 0.00 | 78 | 1016.3 |
| 20260506152615 | 51 | 20 | 3.5 | 8.7 | 0.00 | 0.02 | 0.00 | 77 | 1016.4 |
| 20260506152113 | 50 | 134 | 3.5 | 8.7 | 0.00 | 0.02 | 0.00 | 77 | 1016.5 |
| 20260506151604 | 50 | 44 | 3.5 | 8.7 | 0.00 | 0.02 | 0.00 | 77 | 1016.5 |
| 20260506151549 | 50 | 70 | 3.5 | 8.7 | 0.00 | 0.02 | 0.00 | 78 | 1016.5 |
| 20260506150602 | 50 | 55 | 4.3 | 7.8 | 0.00 | 0.02 | 0.00 | 77 | 1016.7 |
| 20260506150057 | 50 | 26 | 4.3 | 7.8 | 0.00 | 0.02 | 0.00 | 77 | 1016.6 |
| 20260506145533 | 50 | 130 | 4.3 | 8.7 | 0.00 | 0.02 | 0.00 | 79 | 1016.2 |
| 20260506145006 | 50 | 58 | 4.3 | 8.7 | 0.00 | 0.02 | 0.00 | 78 | 1016.2 |
| 20260506144438 | 50 | 49 | 4.3 | 8.7 | 0.00 | 0.02 | 0.00 | 79 | 1016.5 |
| 20260506143912 | 50 | 18 | 4.3 | 8.7 | 0.00 | 0.02 | 0.00 | 79 | 1016.2 |
| 20260506143410 | 50 | 107 | 3.5 | 7.8 | 0.00 | 0.02 | 0.00 | 78 | 1016.2 |
| 20260506143345 | 50 | 33 | 2.6 | 7.8 | 0.00 | 0.02 | 0.00 | 78 | 1016.3 |
| 20260506142344 | 50 | 61 | 2.6 | 7.8 | 0.00 | 0.02 | 0.00 | 80 | 1016.1 |
| 20260506141847 | 50 | 97 | 3.5 | 8.7 | 0.00 | 0.02 | 0.00 | 81 | 1015.9 |
| 20260506141323 | 49 | 60 | 5.2 | 12.2 | 0.00 | 0.02 | 0.00 | 81 | 1015.9 |
| 20260506140815 | 49 | 79 | 3.5 | 12.2 | 0.00 | 0.02 | 0.00 | 80 | 1016.1 |
| 20260506140313 | 49 | 27 | 3.5 | 8.7 | 0.00 | 0.02 | 0.00 | 82 | 1016.2 |
| 20260506135745 | 49 | 143 | 4.3 | 11.3 | 0.00 | 0.02 | 0.00 | 82 | 1016.0 |
| 20260506135247 | 49 | 34 | 3.5 | 11.3 | 0.00 | 0.02 | 0.00 | 82 | 1016.0 |
| 20260506134726 | 49 | 53 | 3.5 | 7.0 | 0.00 | 0.02 | 0.00 | 83 | 1016.4 |
| 20260506134227 | 48 | 119 | 3.5 | 9.6 | 0.00 | 0.02 | 0.00 | 83 | 1016.4 |
| 20260506133725 | 48 | 41 | 3.5 | 9.6 | 0.00 | 0.02 | 0.00 | 83 | 1016.2 |
| 20260506133222 | 48 | 82 | 3.5 | 7.8 | 0.00 | 0.02 | 0.00 | 84 | 1016.3 |
| 20260506132652 | 48 | 160 | 3.5 | 8.7 | 0.00 | 0.02 | 0.00 | 84 | 1016.2 |
| 20260506132154 | 47 | 88 | 3.5 | 10.4 | 0.00 | 0.02 | 0.00 | 85 | 1015.9 |
| 20260506131650 | 47 | 55 | 3.5 | 10.4 | 0.00 | 0.02 | 0.00 | 85 | 1016.0 |
| 20260506131152 | 47 | 21 | 2.6 | 8.7 | 0.00 | 0.02 | 0.00 | 86 | 1016.1 |
| 20260506130649 | 47 | 118 | 3.5 | 8.7 | 0.00 | 0.02 | 0.00 | 86 | 1016.1 |
| 20260506130152 | 47 | 46 | 3.5 | 7.8 | 0.00 | 0.02 | 0.00 | 86 | 1016.0 |
| 20260506130116 | 47 | 93 | 2.6 | 7.8 | 0.00 | 0.02 | 0.00 | 87 | 1016.0 |
| 20260506125124 | 47 | 44 | 2.6 | 8.7 | 0.00 | 0.02 | 0.00 | 87 | 1016.0 |
| 20260506124609 | 47 | 85 | 3.5 | 8.7 | 0.00 | 0.02 | 0.00 | 87 | 1015.7 |
| 20260506124113 | 47 | 75 | 3.5 | 10.4 | 0.00 | 0.02 | 0.00 | 87 | 1015.8 |
| 20260506123548 | 47 | 56 | 2.6 | 10.4 | 0.00 | 0.02 | 0.00 | 87 | 1015.8 |
| 20260506123046 | 46 | 36 | 2.6 | 9.6 | 0.00 | 0.02 | 0.00 | 87 | 1015.9 |
| 20260506122545 | 46 | 78 | 2.6 | 9.6 | 0.00 | 0.02 | 0.00 | 87 | 1015.7 |
| 20260506122046 | 46 | 97 | 1.7 | 9.6 | 0.00 | 0.02 | 0.00 | 87 | 1015.6 |
| 20260506121545 | 46 | 89 | 1.7 | 3.5 | 0.00 | 0.02 | 0.00 | 87 | 1015.4 |
| 20260506121031 | 46 | 57 | 1.7 | 6.1 | 0.00 | 0.02 | 0.00 | 87 | 1015.4 |
| 20260506120502 | 46 | 85 | 1.7 | 6.1 | 0.00 | 0.02 | 0.00 | 87 | 1015.3 |
| 20260506120003 | 46 | 103 | 1.7 | 6.1 | 0.00 | 0.02 | 0.00 | 87 | 1015.3 |
| 20260506115502 | 46 | 53 | 1.7 | 6.1 | 0.00 | 0.02 | 0.00 | 87 | 1015.1 |
| 20260506115002 | 46 | 53 | 2.6 | 6.1 | 0.00 | 0.02 | 0.00 | 87 | 1015.1 |
| 20260506114456 | 46 | 54 | 2.6 | 6.1 | 0.00 | 0.02 | 0.00 | 87 | 1015.1 |
| 20260506113957 | 46 | 16 | 1.7 | 6.1 | 0.00 | 0.02 | 0.00 | 87 | 1015.2 |
| 20260506113459 | 46 | 250 | 1.7 | 6.1 | 0.00 | 0.02 | 0.00 | 86 | 1015.3 |
| 20260506112957 | 46 | 162 | 0.9 | 6.1 | 0.00 | 0.02 | 0.00 | 86 | 1015.2 |
| 20260506112438 | 46 | 139 | 1.7 | 6.1 | 0.00 | 0.02 | 0.00 | 86 | 1015.0 |
| 20260506111919 | 46 | 169 | 1.7 | 4.3 | 0.00 | 0.02 | 0.00 | 85 | 1015.0 |
| 20260506111839 | 46 | 98 | 1.7 | 7.0 | 0.00 | 0.02 | 0.00 | 85 | 1015.0 |
| 20260506110833 | 46 | 214 | 1.7 | 7.0 | 0.00 | 0.02 | 0.00 | 85 | 1014.8 |
| 20260506110311 | 46 | 157 | 0.9 | 3.5 | 0.00 | 0.02 | 0.00 | 85 | 1014.6 |
| 20260506105748 | 46 | 193 | 0.9 | 3.5 | 0.00 | 0.02 | 0.00 | 85 | 1014.6 |
| 20260506105249 | 46 | 91 | 0.9 | 5.2 | 0.00 | 0.02 | 0.00 | 85 | 1014.5 |
| 20260506104729 | 46 | 78 | 1.7 | 7.0 | 0.00 | 0.02 | 0.00 | 85 | 1014.3 |
| 20260506104706 | 46 | 153 | 1.7 | 7.0 | 0.00 | 0.02 | 0.00 | 85 | 1013.9 |
| 20260506103709 | 47 | 206 | 1.7 | 7.0 | 0.00 | 0.02 | 0.00 | 85 | 1013.8 |
| 20260506103204 | 46 | 108 | 1.7 | 7.0 | 0.00 | 0.02 | 0.00 | 85 | 1013.7 |
| 20260506102703 | 46 | 108 | 0.9 | 5.2 | 0.00 | 0.02 | 0.00 | 86 | 1013.7 |
| 20260506102652 | 47 | 22 | 1.7 | 5.2 | 0.00 | 0.02 | 0.00 | 86 | 1013.4 |
| 20260506101704 | 46 | 68 | 1.7 | 5.2 | 0.00 | 0.02 | 0.00 | 86 | 1013.4 |
| 20260506101654 | 47 | 103 | 1.7 | 5.2 | 0.00 | 0.02 | 0.00 | 86 | 1013.3 |
| 20260506100639 | 46 | 25 | 1.7 | 7.8 | 0.00 | 0.02 | 0.00 | 86 | 1013.1 |
| 20260506100631 | 46 | 20 | 1.7 | 5.2 | 0.00 | 0.02 | 0.00 | 86 | 1012.9 |
| 20260506095638 | 47 | 88 | 1.7 | 4.3 | 0.00 | 0.02 | 0.00 | 86 | 1012.7 |
| 20260506095121 | 47 | 358 | 1.7 | 4.3 | 0.00 | 0.02 | 0.00 | 87 | 1012.7 |
| 20260506094622 | 47 | 82 | 2.6 | 9.6 | 0.00 | 0.02 | 0.00 | 87 | 1012.6 |
| 20260506094059 | 47 | 41 | 3.5 | 9.6 | 0.00 | 0.02 | 0.00 | 86 | 1012.4 |
| 20260506093557 | 47 | 11 | 3.5 | 7.0 | 0.00 | 0.02 | 0.00 | 86 | 1012.3 |
| 20260506093042 | 47 | 55 | 3.5 | 10.4 | 0.00 | 0.02 | 0.00 | 86 | 1012.1 |
| 20260506092519 | 47 | 47 | 3.5 | 10.4 | 0.00 | 0.03 | 0.00 | 86 | 1012.1 |
| 20260506092020 | 47 | 15 | 3.5 | 8.7 | 0.00 | 0.03 | 0.00 | 86 | 1012.2 |
| 20260506091521 | 47 | 42 | 2.6 | 8.7 | 0.00 | 0.04 | 0.00 | 86 | 1012.2 |
| 20260506091017 | 47 | 55 | 2.6 | 8.7 | 0.00 | 0.04 | 0.00 | 86 | 1012.3 |
| 20260506090514 | 47 | 359 | 1.7 | 7.0 | 0.00 | 0.04 | 0.00 | 86 | 1012.4 |
| 20260506090013 | 47 | 12 | 2.6 | 7.0 | 0.00 | 0.04 | 0.00 | 86 | 1012.3 |
| 20260506085449 | 47 | 26 | 2.6 | 7.0 | 0.00 | 0.05 | 0.00 | 86 | 1012.3 |
| 20260506084941 | 47 | 41 | 2.6 | 7.0 | 0.00 | 0.06 | 0.00 | 86 | 1012.4 |
| 20260506084420 | 47 | 108 | 2.6 | 7.0 | 0.00 | 0.07 | 0.00 | 86 | 1012.3 |
| 20260506083913 | 47 | 54 | 3.5 | 7.0 | 0.00 | 0.08 | 0.00 | 86 | 1012.0 |
| 20260506083413 | 47 | 89 | 3.5 | 7.0 | 0.00 | 0.08 | 0.00 | 86 | 1012.1 |
| 20260506082915 | 47 | 38 | 2.6 | 9.6 | 0.00 | 0.10 | 0.00 | 86 | 1012.3 |
| 20260506082415 | 46 | 14 | 2.6 | 9.6 | 0.00 | 0.11 | 0.00 | 87 | 1012.3 |
| 20260506081911 | 46 | 128 | 2.6 | 6.1 | 0.00 | 0.18 | 0.00 | 87 | 1012.1 |
| 20260506081410 | 46 | 51 | 2.6 | 7.0 | 0.00 | 0.23 | 0.00 | 88 | 1012.0 |
| 20260506080910 | 46 | 21 | 2.6 | 7.0 | 0.00 | 0.25 | 0.00 | 87 | 1012.0 |
| 20260506080411 | 46 | 53 | 2.6 | 7.0 | 0.00 | 0.28 | 0.00 | 88 | 1012.0 |
| 20260506073308 | 46 | 99 | 3.5 | 8.7 | 0.00 | 0.53 | 0.00 | 90 | 1011.4 |
| 20260506072742 | 46 | 44 | 1.7 | 6.1 | 0.00 | 0.59 | 0.00 | 90 | 1011.6 |
| 20260506072219 | 46 | 155 | 2.6 | 9.6 | 0.00 | 0.64 | 0.00 | 91 | 1011.8 |
| 20260506072151 | 46 | 20 | 3.5 | 9.6 | 0.00 | 0.66 | 0.00 | 91 | 1011.5 |
| 20260506071139 | 46 | 47 | 3.5 | 7.8 | 0.00 | 0.69 | 0.00 | 92 | 1011.6 |
| 20260506070641 | 46 | 69 | 4.3 | 13.0 | 0.00 | 0.75 | 0.00 | 92 | 1011.8 |
| 20260506070137 | 46 | 62 | 4.3 | 13.0 | 0.00 | 0.76 | 0.00 | 92 | 1011.4 |
| 20260506062515 | 46 | 313 | 4.3 | 10.4 | 0.00 | 1.02 | 0.00 | 93 | 1012.1 |
| 20260506062018 | 46 | 71 | 4.3 | 10.4 | 0.00 | 1.03 | 0.00 | 93 | 1012.2 |
| 20260506061511 | 46 | 13 | 3.5 | 10.4 | 0.00 | 1.04 | 0.00 | 94 | 1012.2 |
| 20260506061012 | 46 | 49 | 4.3 | 8.7 | 0.00 | 1.04 | 0.00 | 94 | 1012.1 |
| 20260506060506 | 46 | 141 | 4.3 | 8.7 | 0.00 | 1.05 | 0.00 | 94 | 1012.1 |
| 20260506051248 | 46 | 38 | 1.7 | 5.2 | 0.00 | 1.06 | 0.00 | 93 | 1012.2 |
| 20260506050723 | 46 | 40 | 2.6 | 7.8 | 0.00 | 1.06 | 0.00 | 92 | 1012.0 |
| 20260506050215 | 46 | 70 | 2.6 | 7.8 | 0.00 | 1.06 | 0.00 | 92 | 1011.9 |
| 20260506044641 | 47 | 81 | 3.5 | 7.0 | 0.00 | 1.06 | 1.06 | 91 | 1011.9 |
| 20260506044626 | 47 | 133 | 3.5 | 7.8 | 0.00 | 1.06 | 1.06 | 91 | 1011.6 |
| 20260506043634 | 47 | 115 | 4.3 | 8.7 | 0.00 | 1.06 | 1.06 | 91 | 1011.6 |
| 20260506043107 | 47 | 26 | 4.3 | 8.7 | 0.00 | 1.06 | 1.06 | 91 | 1011.4 |
| 20260506042605 | 47 | 66 | 4.3 | 8.7 | 0.00 | 1.06 | 1.06 | 91 | 1011.4 |
| 20260506042035 | 47 | 331 | 4.3 | 13.0 | 0.00 | 1.06 | 1.06 | 92 | 1011.6 |
| 20260506041534 | 47 | 269 | 4.3 | 13.0 | 0.00 | 1.06 | 1.06 | 92 | 1011.8 |
| 20260506041036 | 47 | 93 | 3.5 | 9.6 | 0.00 | 1.06 | 1.06 | 92 | 1011.4 |
| 20260506040957 | 47 | 23 | 3.5 | 9.6 | 0.00 | 1.06 | 1.06 | 92 | 1011.2 |
| 20260506040005 | 47 | 56 | 3.5 | 11.3 | 0.00 | 1.06 | 1.06 | 93 | 1011.1 |
| 20260506035437 | 47 | 43 | 4.3 | 11.3 | 0.00 | 1.06 | 1.06 | 93 | 1011.2 |
| 20260506034934 | 47 | 86 | 4.3 | 10.4 | 0.00 | 1.06 | 1.06 | 93 | 1011.3 |
| 20260506034407 | 47 | 53 | 3.5 | 7.0 | 0.00 | 1.06 | 1.06 | 93 | 1010.8 |
| 20260506033903 | 47 | 53 | 2.6 | 8.7 | 0.00 | 1.06 | 1.06 | 93 | 1010.7 |
| 20260506033400 | 47 | 238 | 2.6 | 8.7 | 0.00 | 1.06 | 1.06 | 93 | 1010.7 |
| 20260506032853 | 47 | 26 | 2.6 | 6.1 | 0.00 | 1.06 | 1.06 | 93 | 1010.7 |
| 20260506032351 | 47 | 48 | 2.6 | 6.1 | 0.00 | 1.06 | 1.06 | 93 | 1010.7 |
| 20260506031824 | 47 | 62 | 2.6 | 6.1 | 0.00 | 1.06 | 1.06 | 93 | 1010.4 |
| 20260506031747 | 47 | 58 | 3.5 | 7.8 | 0.00 | 1.06 | 1.06 | 93 | 1010.3 |
| 20260506030731 | 47 | 29 | 3.5 | 7.8 | 0.00 | 1.06 | 1.06 | 93 | 1010.0 |
| 20260506030228 | 47 | 63 | 3.5 | 7.8 | 0.00 | 1.06 | 1.06 | 93 | 1010.1 |
| 20260506025724 | 47 | 96 | 2.6 | 7.0 | 0.00 | 1.06 | 1.06 | 93 | 1010.0 |
| 20260506025221 | 47 | 105 | 1.7 | 7.0 | 0.00 | 1.06 | 1.06 | 93 | 1009.9 |
| 20260506024652 | 47 | 62 | 2.6 | 6.1 | 0.00 | 1.06 | 1.06 | 93 | 1010.0 |
| 20260506024150 | 47 | 134 | 3.5 | 7.8 | 0.00 | 1.06 | 1.06 | 93 | 1009.7 |
| 20260506023622 | 47 | 21 | 3.5 | 8.7 | 0.00 | 1.06 | 1.06 | 93 | 1009.7 |
| 20260506023118 | 47 | 86 | 2.6 | 8.7 | 0.00 | 1.06 | 1.06 | 93 | 1009.5 |
| 20260506022616 | 47 | 42 | 2.6 | 7.8 | 0.00 | 1.06 | 1.06 | 92 | 1009.3 |
| 20260506022113 | 47 | 31 | 2.6 | 7.8 | 0.00 | 1.06 | 1.06 | 92 | 1009.3 |
| 20260506021552 | 47 | 63 | 2.6 | 8.7 | 0.00 | 1.06 | 1.06 | 92 | 1009.3 |
| 20260506021053 | 47 | 23 | 2.6 | 8.7 | 0.00 | 1.06 | 1.06 | 92 | 1009.1 |